Evansville, IN

12:45 PM CDT on April 30, 2017 (GMT -0500)
Evansville Regional

Weather History for KEVV - March, 2014

Change the Weather History Date:

Monday, March 10, 2014

  Actual Average Record
Temperature  
Mean Temperature 51 °F 44 °F  
Max Temperature 67 °F 54 °F 82 °F (1990)
Min Temperature 34 °F 34 °F 12 °F (1934)
Degree Days  
Heating Degree Days 14 21  
Month to date heating degree days 295 225  
Since 1 July heating degree days 4257 3799  
Cooling Degree Days 0 0  
Month to date cooling degree days 0 0  
Year to date cooling degree days 0 0  
Moisture  
Dew Point 37 °F    
Average Humidity 61    
Maximum Humidity 85    
Minimum Humidity 37    
Precipitation  
Precipitation 0.00 in 0.13 in 3.17 in (1952)
Month to date precipitation 0.87 1.23  
Year to date precipitation 4.82 7.50  
Snow  
Snow 0.00 in 0.00 in 3.60 in (1949)
Month to date snowfall 2.2 0.5  
Since 1 July snowfall 12.2 11.2  
Snow Depth 0.00 in    
Sea Level Pressure  
Sea Level Pressure 29.92 in    
Wind  
Wind Speed 11 mph (SSW)    
Max Wind Speed 22 mph    
Max Gust Speed 28 mph    
Visibility 8 miles    
Events      
T = Trace of Precipitation, MM = Missing Value Source: NWS Daily Summary

Daily Weather History Graph

Daily Weather History Graph

Search for Another Location

Airport or City:

Trip Planner

Search our weather history database for the weather conditions in past years. The results will help you decide how hot, cold, wet, or windy it might be!

Date:

Astronomy

Mar. 10, 2014 Rise Set
Actual Time 7:08 AM CDT 6:52 PM CDT
Civil Twilight 6:42 AM CDT 7:18 PM CDT
Nautical Twilight 6:12 AM CDT 7:49 PM CDT
Astronomical Twilight 5:41 AM CDT 8:20 PM CDT
Moon 1:39 PM CDT (3/10) 3:16 AM CDT (3/10)
Length of Visible Light 12h 36m
Length of Day
11h 43m
Waxing Gibbous, 70% of the Moon is Illuminated
Mar 10
Waxing Gibbous
Mar 16
Full
Mar 23
Last Quarter
Mar 30
New
Apr 7
First Quarter

Hourly Weather History & Observations

Time (CDT) Temp. Windchill Dew Point Humidity Pressure Visibility Wind Dir Wind Speed Gust Speed Precip Events Conditions
12:54 AM 37.0 °F 30.4 °F 30.9 °F 79% 30.07 in 10.0 mi SW 9.2 mph - N/A   Clear
1:54 AM 37.0 °F 31.6 °F 30.9 °F 79% 30.07 in 8.0 mi SW 6.9 mph - N/A   Clear
2:54 AM 36.0 °F 30.3 °F 30.9 °F 82% 30.05 in 7.0 mi SW 6.9 mph - N/A   Clear
3:54 AM 35.1 °F 29.3 °F 30.9 °F 85% 30.03 in 5.0 mi SSW 6.9 mph - N/A   Clear
4:54 AM 35.1 °F 30.1 °F 30.9 °F 85% 30.01 in 4.0 mi SSW 5.8 mph - N/A   Clear
5:54 AM 37.0 °F 33.3 °F 34.0 °F 89% 30.00 in 5.0 mi SSW 4.6 mph - N/A   Clear
6:54 AM 37.9 °F 31.5 °F 34.0 °F 86% 29.99 in 5.0 mi SSW 9.2 mph - N/A   Clear
7:54 AM 39.0 °F 32.8 °F 35.1 °F 86% 29.99 in 3.0 mi SSW 9.2 mph - N/A   Clear
8:54 AM 42.1 °F 36.1 °F 37.0 °F 82% 29.99 in 8.0 mi SSW 10.4 mph - N/A   Clear
9:54 AM 46.0 °F 40.2 °F 39.0 °F 76% 29.97 in 5.0 mi SW 12.7 mph - N/A   Haze
10:54 AM 52.0 °F - 41.0 °F 66% 29.97 in 7.0 mi SSW 11.5 mph - N/A   Clear
11:54 AM 57.0 °F - 42.1 °F 57% 29.95 in 10.0 mi SSW 11.5 mph - N/A   Clear
12:54 PM 60.1 °F - 42.1 °F 51% 29.92 in 10.0 mi SSW 11.5 mph 19.6 mph N/A   Clear
1:54 PM 63.0 °F - 43.0 °F 48% 29.88 in 10.0 mi SSW 16.1 mph - N/A   Clear
2:54 PM 64.9 °F - 39.9 °F 40% 29.85 in 10.0 mi SSW 19.6 mph 23.0 mph N/A   Clear
3:54 PM 66.0 °F - 42.1 °F 42% 29.82 in 10.0 mi SSW 17.3 mph - N/A   Clear
4:54 PM 64.9 °F - 37.9 °F 37% 29.80 in 10.0 mi South 17.3 mph 26.5 mph N/A   Clear
5:54 PM 64.0 °F - 37.9 °F 38% 29.78 in 10.0 mi SSW 20.7 mph 27.6 mph N/A   Clear
6:54 PM 60.1 °F - 39.0 °F 46% 29.79 in 10.0 mi SW 11.5 mph - N/A   Clear
7:54 PM 57.0 °F - 39.0 °F 51% 29.81 in 10.0 mi SSW 8.1 mph - N/A   Clear
8:54 PM 55.0 °F - 39.9 °F 57% 29.81 in 10.0 mi SSW 4.6 mph - N/A   Clear
9:54 PM 54.0 °F - 39.9 °F 59% 29.81 in 10.0 mi South 6.9 mph - N/A   Clear
10:54 PM 50.0 °F - 41.0 °F 71% 29.81 in 10.0 mi SSW 8.1 mph - N/A   Clear
11:54 PM 51.1 °F - 42.1 °F 71% 29.79 in 10.0 mi SSW 10.4 mph - N/A   Clear